DW1512 Weather Reports


Display with metric or nautical units.
time (UTC)temp
F
wind
direction
speed
MPH
gust
MPH
rain 1hr
in
rain 24hr
in
rain mn
in
humidity
%
barometer
mb
20201125140214 52 277 1.0 3.0 0.00 0.00 0.00 45 1013.7
20201125135708 52 299 2.0 3.0 0.00 0.00 0.00 44 1013.7
20201125135209 53 315 2.0 5.0 0.00 0.00 0.00 44 1013.8
20201125134708 53 315 2.0 5.0 0.00 0.00 0.00 44 1013.7
20201125134209 53 274 2.0 5.0 0.00 0.00 0.00 44 1013.7
20201125133707 53 315 3.0 6.0 0.00 0.00 0.00 43 1013.7
20201125133210 53 311 1.0 6.0 0.00 0.00 0.00 43 1013.9
20201125132708 53 323 3.0 8.0 0.00 0.00 0.00 43 1013.9
20201125132209 53 135 3.0 8.0 0.00 0.00 0.00 44 1014.0
20201125131709 53 355 1.0 6.0 0.00 0.00 0.00 44 1013.8
20201125131227 53 315 3.0 6.0 0.00 0.00 0.00 43 1013.8
20201125130709 53 191 2.0 5.0 0.00 0.00 0.00 44 1013.9
20201125130208 53 276 2.0 5.0 0.00 0.00 0.00 44 1013.8
20201125125707 53 270 3.0 6.0 0.00 0.00 0.00 44 1013.9
20201125125216 53 321 2.0 6.0 0.00 0.00 0.00 44 1013.9
20201125124708 53 353 5.0 6.0 0.00 0.00 0.00 44 1014.1
20201125124208 53 333 3.0 5.0 0.00 0.00 0.00 44 1014.2
20201125123709 53 349 2.0 5.0 0.00 0.00 0.00 44 1013.9
20201125123208 53 282 3.0 6.0 0.00 0.00 0.00 44 1014.3
20201125122709 53 304 3.0 6.0 0.00 0.00 0.00 43 1014.2
20201125122208 54 341 3.0 6.0 0.00 0.00 0.00 43 1014.2
20201125121712 53 273 2.0 6.0 0.00 0.00 0.00 43 1014.5
20201125121210 53 322 3.0 6.0 0.00 0.00 0.00 43 1014.5
20201125120712 53 349 3.0 7.0 0.00 0.00 0.00 43 1014.7
20201125120209 54 242 2.0 7.0 0.00 0.00 0.00 44 1014.4
20201125115709 53 315 4.0 7.0 0.00 0.00 0.00 44 1014.6
20201125115209 54 309 2.0 6.0 0.00 0.00 0.00 44 1014.7
20201125114708 53 214 1.0 6.0 0.00 0.00 0.00 45 1014.6
20201125114208 53 244 3.0 7.0 0.00 0.00 0.00 44 1014.8
20201125113707 52 180 4.0 7.0 0.00 0.00 0.00 45 1014.9
20201125113213 52 278 3.0 6.0 0.00 0.00 0.00 45 1014.8
20201125112709 52 296 3.0 7.0 0.00 0.00 0.00 45 1015.0
20201125112212 53 352 3.0 7.0 0.00 0.00 0.00 45 1015.1
20201125111709 52 270 2.0 7.0 0.00 0.00 0.00 45 1015.1
20201125111211 52 315 4.0 7.0 0.00 0.00 0.00 44 1015.1
20201125110707 54 17 2.0 7.0 0.00 0.00 0.00 46 1015.1
20201125110208 52 17 3.0 7.0 0.00 0.00 0.00 45 1015.3
20201125105708 52 354 3.0 7.0 0.00 0.00 0.00 45 1015.3
20201125105209 53 355 2.0 5.0 0.00 0.00 0.00 46 1015.6
20201125104707 53 0 3.0 7.0 0.00 0.00 0.00 47 1015.4
20201125104213 52 352 3.0 7.0 0.00 0.00 0.00 46 1015.7
20201125103707 52 333 5.0 7.0 0.00 0.00 0.00 47 1015.8
20201125103208 52 350 2.0 6.0 0.00 0.00 0.00 49 1015.8
20201125102708 51 270 3.0 8.0 0.00 0.00 0.00 50 1016.0
20201125102207 50 205 3.0 8.0 0.00 0.00 0.00 50 1015.9
20201125101714 50 287 3.0 6.0 0.00 0.00 0.00 50 1016.0
20201125101207 51 315 3.0 6.0 0.00 0.00 0.00 49 1016.3
20201125100707 51 281 3.0 6.0 0.00 0.00 0.00 49 1016.2
20201125100213 51 270 3.0 6.0 0.00 0.00 0.00 50 1016.2
20201125095708 50 218 0.0 6.0 0.00 0.00 0.00 51 1016.4
20201125095214 50 315 2.0 5.0 0.00 0.00 0.00 50 1016.4
20201125094712 50 308 1.0 3.0 0.00 0.00 0.00 50 1016.3
20201125094215 50 312 1.0 5.0 0.00 0.00 0.00 51 1016.5
20201125093709 49 278 2.0 5.0 0.00 0.00 0.00 51 1016.7
20201125093208 49 315 2.0 5.0 0.00 0.00 0.00 51 1016.5
20201125092710 49 344 2.0 3.0 0.00 0.00 0.00 52 1016.6
20201125092210 48 315 3.0 3.0 0.00 0.00 0.00 52 1016.8
20201125091709 48 306 1.0 3.0 0.00 0.00 0.00 52 1016.8
20201125091207 48 349 1.0 3.0 0.00 0.00 0.00 53 1017.0
20201125090716 47 255 1.0 3.0 0.00 0.00 0.00 54 1017.2
20201125090228 46 351 2.0 3.0 0.00 0.00 0.00 53 1017.1
20201125085751 47 270 1.0 3.0 0.00 0.00 0.00 53 1017.0
20201125085207 46 353 1.0 3.0 0.00 0.00 0.00 54 1017.1
20201125084708 46 353 3.0 3.0 0.00 0.00 0.00 54 1017.2
20201125084208 47 354 2.0 3.0 0.00 0.00 0.00 54 1017.3
20201125083707 46 135 1.0 3.0 0.00 0.00 0.00 54 1017.3
20201125083207 46 280 2.0 3.0 0.00 0.00 0.00 54 1017.3
20201125082708 46 318 2.0 3.0 0.00 0.00 0.00 55 1017.3
20201125082211 46 253 1.0 3.0 0.00 0.00 0.00 57 1017.4
20201125081707 46 175 1.0 3.0 0.00 0.00 0.00 57 1017.2
20201125081208 46 273 2.0 3.0 0.00 0.00 0.00 58 1017.5
20201125080707 45 174 1.0 3.0 0.00 0.00 0.00 63 1017.7
20201125080211 44 171 1.0 3.0 0.00 0.00 0.00 62 1017.5
20201125075709 45 270 1.0 2.0 0.00 0.00 0.00 63 1017.5
20201125075207 44 270 1.0 2.0 0.00 0.00 0.00 64 1017.5
20201125074710 43 315 1.0 2.0 0.00 0.00 0.00 64 1017.4
20201125074215 42 277 1.0 2.0 0.00 0.00 0.00 66 1017.7
20201125073708 42 315 1.0 2.0 0.00 0.00 0.00 69 1017.7
20201125073211 42 304 0.0 2.0 0.00 0.00 0.00 70 1017.9
20201125072708 42 259 0.0 1.0 0.00 0.00 0.00 72 1017.8
20201125072208 40 225 0.0 1.0 0.00 0.00 0.00 72 1017.7
20201125071712 40 225 0.0 1.0 0.00 0.00 0.00 72 1017.7
20201125071207 39 225 0.0 1.0 0.00 0.00 0.00 73 1017.7
20201125070707 38 225 0.0 0.0 0.00 0.00 0.00 76 1017.7
20201125070213 36 225 0.0 0.0 0.00 0.00 0.00 80 1017.8
20201125065707 34 225 0.0 0.0 0.00 0.00 0.00 80 1017.9
20201125065211 32 225 0.0 0.0 0.00 0.00 0.00 78 1017.7
20201125064707 30 225 0.0 0.0 0.00 0.00 0.00 78 1017.6
20201125064209 30 225 0.0 0.0 0.00 0.00 0.00 78 1017.8
20201125063708 29 212 0.0 0.0 0.00 0.00 0.00 78 1017.9
20201125063209 29 148 0.0 0.0 0.00 0.00 0.00 80 1017.8
20201125062709 28 225 0.0 0.0 0.00 0.00 0.00 80 1017.9
20201125062210 28 225 0.0 0.0 0.00 0.00 0.00 81 1017.8
20201125061710 28 225 0.0 0.0 0.00 0.00 0.00 82 1017.9
20201125061209 27 225 0.0 0.0 0.00 0.00 0.00 83 1017.8
20201125060707 25 225 0.0 0.0 0.00 0.00 0.00 83 1017.7
20201125060214 24 225 0.0 0.0 0.00 0.00 0.00 82 1017.8
20201125055707 23 225 0.0 0.0 0.00 0.00 0.00 82 1017.8
20201125055207 22 135 0.0 0.0 0.00 0.00 0.00 82 1017.7
20201125054708 21 225 0.0 0.0 0.00 0.00 0.00 81 1017.8
20201125054207 20 225 0.0 0.0 0.00 0.00 0.00 81 1017.7
20201125053708 19 225 0.0 0.0 0.00 0.00 0.00 80 1017.7
20201125053211 19 225 0.0 0.0 0.00 0.00 0.00 80 1017.8
20201125052711 19 225 0.0 0.0 0.00 0.00 0.00 80 1017.8
20201125052207 19 225 0.0 0.0 0.00 0.00 0.00 80 1017.6
20201125051712 19 225 0.0 0.0 0.00 0.00 0.00 80 1017.5
20201125051208 19 225 0.0 0.0 0.00 0.00 0.00 80 1017.8
20201125050709 19 225 0.0 0.0 0.00 0.00 0.00 80 1017.6
20201125050208 19 225 0.0 0.0 0.00 0.00 0.00 80 1017.6
20201125045709 19 225 0.0 58.0 0.00 0.00 0.00 81 1017.7
20201125045213 20 225 0.0 58.0 0.00 0.00 0.00 81 1017.7
20201125044707 20 90 15.0 58.0 0.00 0.00 0.00 46 1017.4
20201125044207 20 90 1.0 58.0 0.00 0.00 0.00 80 1017.6
20201125043707 20 90 43.0 58.0 0.00 0.00 0.00 44 1017.5
20201125043207 21 270 58.0 58.0 0.00 0.00 0.00 10 1017.5
20201125042708 21 270 58.0 58.0 0.00 0.00 0.00 10 1017.4
20201125042207 21 270 58.0 58.0 0.00 0.00 0.00 10 1017.5
20201125041707 21 270 58.0 58.0 0.00 0.00 0.00 10 1017.5
20201125041209 21 270 58.0 58.0 0.00 0.00 0.00 10 1017.3
20201125040708 21 270 58.0 58.0 0.00 0.00 0.00 10 1017.3
20201125040210 21 270 58.0 58.0 0.00 0.00 0.00 10 1017.5
20201125035707 21 270 58.0 58.0 0.00 0.00 0.00 10 1017.4
20201125035208 21 270 58.0 58.0 0.00 0.00 0.00 10 1017.1
20201125034711 21 270 58.0 58.0 0.00 0.00 0.00 10 1017.4
20201125034209 21 270 58.0 58.0 0.00 0.00 0.00 10 1017.3
20201125033709 21 270 58.0 58.0 0.00 0.00 0.00 10 1017.5
20201125033207 21 270 58.0 58.0 0.00 0.00 0.00 10 1017.5
20201125032707 21 270 58.0 58.0 0.00 0.00 0.00 10 1017.6
20201125032208 21 270 58.0 58.0 0.00 0.00 0.00 10 1017.5
20201125031710 21 270 58.0 58.0 0.00 0.00 0.00 10 1017.4
20201125031211 21 270 58.0 58.0 0.00 0.00 0.00 10 1017.2
20201125030708 21 270 0.0 58.0 0.00 0.00 0.00 81 1017.7
20201125030208 21 270 0.0 58.0 0.00 0.00 0.00 81 1017.5
20201125025708 21 45 58.0 58.0 0.00 0.00 0.00 10 1017.3
20201125025213 21 45 0.0 58.0 0.00 0.00 0.00 80 1017.5
20201125024709 21 45 0.0 58.0 0.00 0.00 0.00 80 1017.4
20201125024209 22 225 58.0 58.0 0.00 0.00 0.00 10 1017.4
20201125023710 22 225 58.0 58.0 0.00 0.00 0.00 10 1017.3
20201125023210 22 225 58.0 58.0 0.00 0.00 0.00 10 1017.1
20201125022710 22 225 58.0 58.0 0.00 0.00 0.00 10 1017.1
20201125022209 22 225 58.0 58.0 0.00 0.00 0.00 10 1017.1
20201125021708 22 225 58.0 58.0 0.00 0.00 0.00 10 1017.2
20201125021209 22 225 58.0 58.0 0.00 0.00 0.00 10 1017.2
20201125020714 22 225 58.0 58.0 0.00 0.00 0.00 10 1017.2
20201125020212 22 225 58.0 58.0 0.00 0.00 0.00 10 1017.3
20201125015709 22 225 58.0 58.0 0.00 0.00 0.00 10 1017.2
20201125015209 22 225 58.0 58.0 0.00 0.00 0.00 10 1017.2
20201125014710 22 225 58.0 58.0 0.00 0.00 0.00 10 1017.0
20201125014208 22 225 58.0 58.0 0.00 0.00 0.00 10 1017.2
20201125013708 22 225 58.0 58.0 0.00 0.00 0.00 10 1017.1
20201125013208 22 225 43.0 58.0 0.00 0.00 0.00 10 1017.2
20201125012716 22 225 0.0 58.0 0.00 0.00 0.00 80 1017.1
20201125012208 22 225 0.0 58.0 0.00 0.00 0.00 80 1017.3
20201125011708 22 270 58.0 58.0 0.00 0.00 0.00 10 1017.3
20201125011218 22 90 58.0 58.0 0.00 0.00 0.00 10 1017.2
20201125010709 22 90 1.0 58.0 0.00 0.00 0.00 80 1017.3
20201125010208 22 90 1.0 58.0 0.00 0.00 0.00 80 1017.3
20201125005711 22 83 58.0 58.0 0.00 0.00 0.00 10 1017.2
20201125005211 22 45 58.0 58.0 0.00 0.00 0.00 10 1017.4
20201125004710 22 45 58.0 58.0 0.00 0.00 0.00 10 1017.6
20201125004210 22 45 14.0 58.0 0.00 0.00 0.00 46 1017.6
20201125003715 22 45 0.0 58.0 0.00 0.00 0.00 80 1017.6
20201125003211 22 45 43.0 58.0 0.00 0.00 0.00 44 1017.5
20201125002718 25 135 58.0 58.0 0.00 0.00 0.00 10 1017.5
20201125002209 25 135 58.0 58.0 0.00 0.00 0.00 10 1017.4
20201125001710 25 135 58.0 58.0 0.00 0.00 0.00 10 1017.2
20201125001215 25 135 58.0 58.0 0.00 0.00 0.00 10 1017.5
20201125000709 25 135 58.0 58.0 0.00 0.00 0.00 10 1017.4
20201125000211 25 135 58.0 58.0 0.00 0.00 0.00 10 1017.4
20201124235708 25 135 58.0 58.0 0.00 0.00 0.00 10 1017.4
20201124235209 25 135 58.0 58.0 0.00 0.00 0.00 10 1017.5
20201124234708 25 135 58.0 58.0 0.00 0.00 0.00 10 1017.5
20201124234208 25 135 58.0 58.0 0.00 0.00 0.00 10 1017.4
20201124233708 25 135 58.0 58.0 0.00 0.00 0.00 10 1017.5
20201124233210 25 135 58.0 58.0 0.00 0.00 0.00 10 1017.5
20201124232709 25 135 58.0 58.0 0.00 0.00 0.00 10 1017.6
20201124232209 25 135 58.0 58.0 0.00 0.00 0.00 10 1017.5
20201124231710 25 135 58.0 58.0 0.00 0.00 0.00 10 1017.6
20201124231209 25 135 58.0 58.0 0.00 0.00 0.00 10 1017.7
20201124230710 25 135 58.0 58.0 0.00 0.00 0.00 10 1017.8
20201124230208 25 135 58.0 58.0 0.00 0.00 0.00 10 1017.8
20201124225709 25 135 58.0 58.0 0.00 0.00 0.00 10 1017.7
20201124225209 25 135 58.0 58.0 0.00 0.00 0.00 10 1017.7
20201124224709 25 135 58.0 58.0 0.00 0.00 0.00 10 1017.9
20201124224208 25 135 58.0 58.0 0.00 0.00 0.00 10 1017.7
20201124223710 25 135 58.0 58.0 0.00 0.00 0.00 10 1018.0
20201124223210 25 135 58.0 58.0 0.00 0.00 0.00 10 1018.0
20201124222711 25 135 58.0 58.0 0.00 0.00 0.00 10 1017.8
20201124222209 25 135 58.0 58.0 0.00 0.00 0.00 10 1018.0
20201124221709 25 135 58.0 58.0 0.00 0.00 0.00 10 1017.9
20201124221215 25 135 58.0 58.0 0.00 0.00 0.00 10 1018.0
20201124220708 25 135 58.0 58.0 0.00 0.00 0.00 10 1018.2
20201124220208 25 135 58.0 58.0 0.00 0.00 0.00 10 1018.0
20201124215709 25 135 58.0 58.0 0.00 0.00 0.00 10 1018.1
20201124215209 25 135 58.0 58.0 0.00 0.00 0.00 10 1018.0
20201124214711 25 135 58.0 58.0 0.00 0.00 0.00 10 1018.0
20201124214210 25 135 58.0 58.0 0.00 0.00 0.00 10 1018.0
20201124213711 25 135 0.0 58.0 0.00 0.00 0.00 78 1017.9
20201124213214 25 135 0.0 58.0 0.00 0.00 0.00 78 1018.0
20201124212709 25 128 58.0 58.0 0.00 0.00 0.00 10 1018.1
20201124212210 27 90 58.0 58.0 0.00 0.00 0.00 10 1017.7
20201124211710 27 90 58.0 58.0 0.00 0.00 0.00 10 1017.9
20201124211209 27 90 58.0 58.0 0.00 0.00 0.00 10 1017.9
20201124210710 27 90 58.0 58.0 0.00 0.00 0.00 10 1017.8
20201124210210 27 90 58.0 58.0 0.00 0.00 0.00 10 1017.8
20201124205709 27 90 58.0 58.0 0.00 0.00 0.00 10 1017.9
20201124205208 27 90 58.0 58.0 0.00 0.00 0.00 10 1017.9
20201124204708 27 90 1.0 58.0 0.00 0.00 0.00 77 1017.7
20201124204208 27 90 1.0 58.0 0.00 0.00 0.00 77 1017.6
20201124203710 28 225 58.0 58.0 0.00 0.00 0.00 10 1017.6
20201124203215 28 225 58.0 58.0 0.00 0.00 0.00 10 1017.8
20201124202729 28 225 58.0 58.0 0.00 0.00 0.00 10 1017.7
20201124202211 28 225 58.0 58.0 0.00 0.00 0.00 10 1017.6
20201124201709 28 225 58.0 58.0 0.00 0.00 0.00 10 1017.8
20201124201212 28 225 1.0 58.0 0.00 0.00 0.00 76 1017.9
20201124200708 28 225 1.0 58.0 0.00 0.00 0.00 76 1017.7
20201124200210 28 225 58.0 58.0 0.00 0.00 0.00 10 1017.8
20201124195709 29 225 58.0 58.0 0.00 0.00 0.00 10 1017.6
20201124195210 29 225 58.0 58.0 0.00 0.00 0.00 10 1017.4
20201124194711 29 225 0.0 0.0 0.00 0.00 0.00 74 1017.4
20201124194210 29 225 0.0 0.0 0.00 0.00 0.00 74 1017.4
20201124193708 31 244 0.0 0.0 0.00 0.00 0.00 75 1017.1
20201124193219 29 225 0.0 0.0 0.00 0.00 0.00 74 1017.6
20201124192710 30 225 0.0 0.0 0.00 0.00 0.00 73 1017.5
20201124192209 30 229 0.0 1.0 0.00 0.00 0.00 73 1017.6
20201124191739 30 225 0.0 1.0 0.00 0.00 0.00 73 1017.4
20201124191229 31 233 0.0 1.0 0.00 0.00 0.00 73 1017.5
20201124190707 30 135 0.0 0.0 0.00 0.00 0.00 72 1017.5
20201124190210 31 135 0.0 0.0 0.00 0.00 0.00 72 1017.4
20201124185712 30 135 0.0 0.0 0.00 0.00 0.00 71 1017.2
20201124185208 29 135 0.0 0.0 0.00 0.00 0.00 71 1017.2
20201124184707 32 135 0.0 0.0 0.00 0.00 0.00 70 1017.1
20201124184208 30 135 0.0 0.0 0.00 0.00 0.00 70 1017.0
20201124183708 33 135 0.0 0.0 0.00 0.00 0.00 70 1017.0
20201124183208 34 148 0.0 0.0 0.00 0.00 0.00 70 1017.1
20201124182710 33 225 0.0 0.0 0.00 0.00 0.00 69 1017.0
20201124182208 35 225 0.0 0.0 0.00 0.00 0.00 69 1017.0
20201124181708 35 225 0.0 0.0 0.00 0.00 0.00 68 1017.0
20201124181209 36 225 0.0 0.0 0.00 0.00 0.00 69 1017.1
20201124180707 38 225 0.0 0.0 0.00 0.00 0.00 68 1016.9
20201124180209 39 225 0.0 0.0 0.00 0.00 0.00 68 1016.8
20201124175708 39 225 0.0 1.0 0.00 0.00 0.00 67 1016.9
20201124175209 39 233 0.0 2.0 0.00 0.00 0.00 67 1016.7
20201124174708 39 315 0.0 2.0 0.00 0.00 0.00 67 1016.7
20201124174209 39 262 0.0 1.0 0.00 0.00 0.00 66 1016.7
20201124173708 40 146 0.0 1.0 0.00 0.00 0.00 66 1016.7
20201124173209 40 290 1.0 2.0 0.00 0.00 0.00 66 1016.8
20201124172708 40 135 0.0 2.0 0.00 0.00 0.00 65 1016.9
20201124172208 40 90 1.0 3.0 0.00 0.00 0.00 65 1016.7
20201124171708 40 79 1.0 3.0 0.00 0.00 0.00 65 1016.6
20201124171208 40 58 1.0 3.0 0.00 0.00 0.00 64 1016.7
20201124170708 41 258 0.0 5.0 0.00 0.00 0.00 65 1016.7
20201124170208 41 308 2.0 5.0 0.00 0.00 0.00 65 1016.7
20201124165708 40 357 1.0 3.0 0.00 0.00 0.00 64 1016.6
20201124165207 40 45 1.0 2.0 0.00 0.00 0.00 64 1016.7
20201124164710 40 200 0.0 1.0 0.00 0.00 0.00 63 1016.5
20201124164210 41 160 0.0 1.0 0.00 0.00 0.00 63 1016.7
20201124163707 41 279 0.0 1.0 0.00 0.00 0.00 62 1016.6
20201124163208 41 225 0.0 2.0 0.00 0.00 0.00 62 1016.6
20201124162708 42 74 0.0 2.0 0.00 0.00 0.00 62 1016.5
20201124162212 42 349 1.0 2.0 0.00 0.00 0.00 61 1016.5
20201124161710 41 270 1.0 2.0 0.00 0.00 0.00 61 1016.6
20201124161209 43 172 1.0 3.0 0.00 0.00 0.00 61 1016.5
20201124160708 43 167 1.0 3.0 0.00 0.00 0.00 61 1016.5
20201124160209 43 315 1.0 3.0 0.00 0.00 0.00 61 1016.4
20201124155707 41 264 1.0 3.0 0.00 0.00 0.00 60 1016.5
20201124155208 43 221 1.0 3.0 0.00 0.00 0.00 61 1016.4
20201124154711 43 180 1.0 3.0 0.00 0.00 0.00 60 1016.5
20201124154211 43 62 1.0 7.0 0.00 0.00 0.00 60 1016.6
20201124153709 43 318 1.0 7.0 0.00 0.00 0.00 58 1016.4
20201124153208 44 340 3.0 7.0 0.00 0.00 0.00 60 1016.2
20201124152709 44 79 1.0 6.0 0.00 0.00 0.00 59 1016.4
20201124152211 45 101 2.0 6.0 0.00 0.00 0.00 57 1016.2
20201124151709 46 148 2.0 3.0 0.00 0.00 0.00 52 1016.1
20201124151209 45 233 3.0 7.0 0.00 0.00 0.00 56 1016.3
20201124150709 46 210 2.0 7.0 0.00 0.00 0.00 52 1016.4
20201124150210 46 265 3.0 7.0 0.00 0.00 0.00 51 1016.3
20201124145716 47 323 3.0 8.0 0.00 0.00 0.00 50 1016.0
20201124145210 47 260 4.0 8.0 0.00 0.00 0.00 51 1015.8
20201124144709 47 322 4.0 6.0 0.00 0.00 0.00 50 1015.9
20201124144209 47 31 4.0 6.0 0.00 0.00 0.00 50 1015.7
20201124143707 46 144 3.0 6.0 0.00 0.00 0.00 51 1015.7
20201124143212 48 292 2.0 6.0 0.00 0.00 0.00 48 1015.5
20201124142709 48 270 3.0 8.0 0.00 0.00 0.00 48 1015.6
20201124142209 48 238 3.0 8.0 0.00 0.00 0.00 48 1015.4
20201124141708 46 320 1.0 7.0 0.00 0.00 0.00 47 1015.3
20201124141212 49 84 3.0 6.0 0.00 0.00 0.00 49 1015.2
20201124140709 50 122 3.0 8.0 0.00 0.00 0.00 50 1015.1